User: anonymous   Login
Location: Unspecified
(0.0000°N, 0.0000°E)
Time: 23:22:59
(UTC+00:00)
Language:

STARLINK-5284 - Orbit

View from above orbital plane
View from above orbital plane
View from above satellite
View from above satellite

Ground track
Ground track

The orbit is defined by the following mean orbital elements,

1 55297U          26145.54946330 +.00000000 +00000-0 +15849-4 0 00004
2 55297  69.9987 190.5974 0003727 267.8407  92.2326 14.98330377    05
Epoch (UTC): 25 May 2026 13:11:13
Eccentricity: 0.0003727
inclination: 69.9987°
perigee height: 569 km
apogee height: 575 km
right ascension of ascending node: 190.5974°
argument of perigee: 267.8407°
revolutions per day: 14.98330377
mean anomaly at epoch: 92.2326°

The dashed part of the orbit path shows where the satellite is in the earth's shadow,  

DLR